Theta_e
276 277 277 273 273 273 270 271 270 274 272 273 276 284 286 288 289 288 288 290 291 291 291 291 292 292 291 291 291 292 291 290 290 290 290 290 289 289 288 288 288 288 288 287
274 279 276 272 273 274 272 271 272 275 272 276 276 281 283 284 285 285 285 286 287 288 289 289 290 290 290 290 290 290 289 288 289 288 287 287 286 286 285 285 285 285 285 284
271 277 278 269 271 273 271 272 271 268 274 276 272 273 273 277 280 281 282 283 283 284 286 286 286 287 287 288 288 287 287 287 287 286 285 285 285 285 284 284 284 284 283 284
270 273 265 273 277 276 274 272 272 272 272 278 275 273 272 274 275 275 278 279 280 281 281 284 285 285 284 284 284 283 283 284 285 285 284 284 284 284 284 284 283 282 282 282
272 271 275 275 275 272 272 271 273 271 271 273 282 279 272 272 274 273 273 275 276 278 279 279 280 282 281 280 280 279 279 280 282 282 281 282 281 282 282 282 282 281 281 281
269 267 265 273 275 278 278 270 274 272 271 271 275 269 268 272 273 273 273 273 273 274 276 276 277 279 278 277 277 276 277 278 279 280 280 279 280 280 281 281 281 280 279 278
267 270 273 275 276 278 267 268 274 274 272 271 268 269 271 273 272 272 272 273 273 272 271 272 276 276 275 275 274 276 276 276 277 277 277 277 277 277 277 276 276 276 275 275
266 269 268 277 275 268 272 276 275 274 273 271 271 272 271 271 271 271 270 271 272 270 269 270 272 273 272 271 274 274 274 274 274 274 275 275 274 274 274 273 272 272 271 272
273 273 278 277 274 276 276 274 274 275 275 274 273 272 271 270 270 270 270 270 270 269 268 268 269 270 269 271 272 272 271 270 271 272 273 274 273 272 271 271 270 269 269 268
278 278 275 274 277 277 277 275 275 275 274 274 272 271 270 270 269 268 268 268 268 267 266 265 266 267 268 269 271 269 269 269 269 269 269 271 272 272 271 270 269 269 267 266
278 279 276 275 275 276 275 275 274 273 273 272 271 269 269 268 268 267 267 266 266 265 264 264 265 264 265 267 268 268 267 267 267 267 267 267 268 271 270 271 272 269 268 267
276 278 277 275 274 275 273 273 274 273 271 271 271 269 268 266 266 265 264 265 264 263 263 262 263 263 263 264 265 266 265 265 265 265 265 265 265 264 271 272 272 273 273 271
277 278 275 274 274 274 272 271 271 271 270 268 268 267 266 265 264 264 263 262 261 261 261 261 261 261 261 262 262 263 263 263 263 263 263 262 262 261 260 263 268 269 270 270
275 276 275 275 272 270 268 267 266 265 264 265 264 264 263 262 262 261 260 260 260 259 258 258 259 258 259 259 260 260 260 261 261 260 260 260 259 258 257 256 257 259 264 267
273 272 274 272 271 270 269 268 266 265 264 262 260 260 259 258 257 257 255 255 257 258 257 257 257 257 256 256 257 257 261 259 256 255 255 256 255 255 255 255 256 257 259 262
270 269 268 268 267 266 265 264 264 263 261 259 259 259 258 257 256 255 254 254 257 255 252 252 254 254 254 254 253 254 254 260 256 254 255 257 258 257 258 257 257 257 257 257
268 264 263 261 265 263 263 261 262 262 260 259 258 256 256 255 255 254 252 251 251 251 252 252 252 252 252 253 253 254 255 257 257 257 256 254 251 254 255 256 256 256 256 257
264 264 267 268 266 262 258 260 261 260 259 258 257 256 255 254 255 252 251 250 250 251 251 251 251 251 252 256 256 255 255 253 252 249 251 255 255 254 253 252 253 253 255 256
262 267 266 267 265 263 262 260 259 257 257 257 257 255 254 252 251 250 249 252 252 254 255 252 262 254 253 257 255 252 252 252 252 251 248 250 250 250 250 251 252 253 254 254
258 258 261 260 261 261 259 254 257 257 255 256 255 255 253 250 249 251 249 251 249 250 248 248 249 251 249 249 254 247 247 247 247 249 249 250 250 252 253 252 252 253 253 252
261 259 260 261 257 255 258 259 258 257 254 256 257 256 255 251 249 249 251 251 252 248 250 251 250 250 249 250 249 246 245 246 247 249 250 251 252 252 253 253 252 252 252 252
258 260 258 257 258 254 253 255 256 256 256 255 253 253 253 249 248 249 248 252 250 252 250 249 249 251 250 253 247 247 247 247 249 250 251 251 250 251 253 253 253 254 254 254
259 260 258 258 258 257 252 255 256 257 256 255 255 254 255 254 252 253 253 251 248 250 249 249 251 257 257 249 247 247 248 249 250 251 251 251 252 252 252 253 254 254 254 254
257 257 257 253 256 257 256 253 254 253 254 253 253 253 255 254 251 249 250 252 253 253 250 250 253 263 259 248 247 249 250 251 252 252 253 253 252 252 253 253 254 254 254 254
258 255 254 256 258 258 256 254 253 252 253 251 249 250 251 251 254 253 250 250 255 252 251 253 261 261 250 247 249 250 251 252 253 253 254 254 254 254 254 253 253 254 254 254
258 259 259 257 259 258 258 257 257 256 255 253 250 251 250 251 252 252 251 252 251 253 251 251 250 250 251 251 251 252 253 254 255 256 256 255 255 253 254 254 254 254 254 254
257 258 256 254 255 258 259 259 258 257 258 258 258 256 257 255 254 254 254 253 253 252 251 251 252 253 253 253 253 255 254 255 256 256 256 255 254 254 254 255 254 254 254 253
Wind_Speed
13 13 3 21 21 25 22 18 9 13 14 21 23 18 20 20 22 26 25 26 22 20 18 18 17 17 17 16 16 15 18 17 15 14 15 14 14 15 14 15 13 12 12 10
3 11 7 19 24 19 19 20 10 13 15 17 17 19 26 22 25 26 25 23 23 22 21 20 19 19 18 17 17 16 18 17 15 17 15 15 13 16 15 13 10 10 9 9
5 8 1 7 23 12 18 22 11 12 10 14 22 25 24 22 25 25 23 21 23 20 22 18 17 15 19 16 17 18 18 14 15 17 13 13 13 13 12 11 10 12 10 10
5 5 8 5 17 9 7 25 25 18 17 10 13 19 25 24 23 24 22 23 20 18 20 17 17 17 19 19 19 18 19 17 13 12 15 13 13 12 11 10 13 12 12 12
4 4 1 14 21 14 8 15 25 21 20 16 6 15 27 24 21 19 19 17 17 16 18 21 19 16 19 20 19 20 18 16 14 14 15 15 14 13 11 12 13 12 12 13
5 6 9 14 24 21 8 16 24 20 19 18 17 17 9 16 15 19 19 18 16 17 19 22 18 16 20 19 19 19 15 14 14 15 16 15 14 13 12 12 13 11 15 15
8 7 5 15 25 13 11 5 16 14 13 15 12 8 4 9 18 18 17 19 17 19 19 17 15 14 20 18 19 14 14 15 16 15 16 14 14 13 14 13 13 13 13 13
5 7 7 19 10 10 4 4 7 10 11 11 9 10 12 15 17 18 19 19 18 17 18 18 18 16 18 19 13 12 13 15 15 16 12 11 14 13 13 12 12 12 11 10
5 3 3 3 3 4 4 3 6 7 7 9 12 14 15 15 16 17 17 16 15 15 17 16 15 14 16 14 12 12 15 16 14 14 13 13 14 14 11 12 11 10 10 9
3 4 3 1 2 2 2 4 7 9 9 10 13 13 14 14 14 14 15 15 13 15 17 16 15 15 15 13 11 12 15 15 14 14 14 13 11 11 10 10 9 9 9 8
2 3 5 3 4 3 5 5 8 10 10 11 12 13 12 13 14 13 13 13 12 14 15 16 14 16 15 14 11 15 15 14 14 12 12 11 11 10 9 11 13 8 7 7
4 4 2 3 3 5 7 7 7 8 10 12 12 14 13 13 11 11 11 10 13 13 14 13 14 15 14 13 13 12 13 10 8 7 7 7 7 7 18 17 20 20 17 14
4 4 5 7 6 3 6 6 8 10 10 11 12 11 12 12 11 10 11 11 12 10 9 8 9 12 11 10 9 11 10 8 7 8 7 7 7 7 7 7 10 17 19 18
3 7 3 4 4 6 8 7 7 9 9 8 8 9 10 11 10 12 11 8 8 9 10 9 10 11 9 8 7 8 7 10 6 5 5 5 5 4 3 4 8 9 13 16
3 3 2 10 7 7 6 5 9 9 7 8 6 7 7 8 7 4 3 3 4 9 9 8 9 9 7 6 6 7 7 5 4 3 3 2 2 2 2 2 3 5 8 11
7 7 6 7 8 7 6 4 7 6 5 4 7 6 6 7 6 6 6 7 7 7 4 4 6 5 6 6 4 3 3 5 1 1 1 4 6 7 8 9 8 8 8 9
10 4 4 4 8 6 7 5 6 7 7 7 7 5 6 6 6 6 4 3 3 3 1 2 2 5 4 5 3 2 1 4 10 7 8 6 4 6 6 7 8 9 9 9
1 3 5 8 13 9 6 6 7 8 8 8 7 6 6 5 7 6 4 4 2 4 3 3 3 2 1 6 9 7 6 6 5 3 4 6 7 6 6 6 7 7 9 9
2 8 6 9 11 10 10 9 8 6 7 7 8 7 6 4 4 3 2 4 6 5 6 6 11 9 9 10 8 5 5 6 6 5 4 5 5 4 5 5 7 8 8 9
5 5 8 9 8 8 9 4 7 7 6 8 8 7 6 3 4 5 3 5 2 3 4 4 4 5 4 5 6 3 3 3 3 4 4 4 5 7 7 8 8 9 8 8
8 8 10 11 8 6 7 10 10 10 7 8 9 8 8 6 4 4 5 3 4 3 3 4 4 4 3 4 3 3 3 3 3 5 5 6 7 7 8 8 8 8 8 7
7 10 9 9 9 7 5 7 8 9 8 7 6 7 7 4 4 2 2 4 3 2 1 1 1 4 3 4 2 3 3 4 4 4 6 6 5 7 8 8 9 8 8 8
8 9 10 11 12 10 7 7 8 9 9 7 8 7 5 4 4 4 1 4 1 2 0 2 4 4 3 2 2 3 4 5 6 6 6 6 6 7 8 8 8 8 9 9
7 7 7 6 10 9 10 6 6 3 5 6 5 5 7 4 1 2 1 3 3 2 1 3 4 6 4 2 3 4 5 5 6 6 7 8 6 6 7 7 9 9 8 10
7 6 6 10 10 7 7 7 7 5 6 4 3 3 4 2 3 3 3 2 3 0 2 4 5 7 2 3 3 5 5 6 7 7 8 8 8 8 8 8 7 8 8 8
11 9 8 7 5 7 7 8 7 6 6 5 2 2 2 2 3 3 2 2 2 2 2 3 3 3 3 4 5 5 6 7 7 8 8 8 8 8 8 8 8 7 8 8
6 7 5 3 2 6 7 7 8 9 7 8 5 4 4 3 3 3 3 2 1 2 3 3 3 4 4 4 5 6 6 7 8 8 8 8 7 8 8 9 8 7 7 8
Wind_Direction
291 263 154 30 8 15 19 2 31 9 15 353 352 30 49 59 64 60 59 61 64 66 65 64 63 62 63 58 60 60 68 65 59 56 60 55 60 61 58 63 61 57 64 61
307 116 72 41 14 22 17 6 5 16 32 4 1 27 45 45 59 58 54 57 58 62 65 62 62 59 61 61 60 63 65 68 68 59 58 61 58 61 58 62 63 63 59 63
308 323 353 26 9 10 25 26 346 16 3 10 22 37 33 33 46 56 55 55 51 52 58 57 59 55 58 59 62 56 59 55 59 67 62 56 61 64 61 62 61 60 53 52
287 339 40 3 14 357 5 25 15 12 360 27 47 52 43 30 41 43 41 43 41 43 48 43 52 57 62 52 53 53 51 46 40 61 62 57 55 52 54 57 58 56 54 55
14 22 301 8 355 343 352 28 12 5 5 5 40 60 39 18 33 42 41 40 40 43 49 44 37 43 59 53 52 50 44 44 42 47 56 56 53 51 51 63 67 63 58 52
352 71 22 342 337 330 271 39 359 5 15 15 10 59 29 4 29 43 47 43 40 40 49 45 31 36 61 55 52 49 44 48 48 49 54 54 54 51 51 56 61 59 53 47
5 67 37 347 335 342 61 308 340 2 18 32 43 45 21 26 43 44 46 45 40 44 50 40 37 43 52 52 48 43 46 50 49 47 52 50 52 48 51 50 51 49 51 47
12 54 18 7 352 55 324 332 335 9 23 44 52 60 54 49 47 43 43 38 39 46 45 36 30 39 48 47 35 45 53 53 49 50 48 46 55 52 51 50 48 47 42 42
44 76 54 345 40 2 15 349 355 32 38 54 66 61 56 57 53 50 49 49 44 48 51 41 33 36 47 32 36 44 53 51 48 49 48 47 51 49 47 43 43 38 34 27
166 166 141 85 171 35 346 52 36 49 61 64 70 62 61 58 53 50 44 42 42 48 50 44 33 34 38 26 38 50 54 49 46 45 41 38 48 46 48 44 41 42 33 20
72 111 139 122 51 41 60 54 68 51 54 69 75 62 63 64 57 51 49 45 44 49 48 40 31 33 27 19 27 49 47 41 40 39 37 34 33 39 47 41 41 37 41 21
206 167 146 101 85 65 76 60 57 87 78 60 76 81 76 69 61 58 54 48 51 48 48 36 35 33 21 15 26 46 52 44 40 45 41 38 30 25 30 43 40 32 34 31
162 116 84 108 91 89 95 80 68 68 64 77 62 80 83 87 72 70 62 57 53 51 50 50 49 44 22 20 34 51 61 48 41 41 37 32 30 27 18 358 19 22 15 19
84 116 84 197 133 87 93 95 88 78 60 64 71 59 70 73 61 55 49 38 43 48 43 35 41 33 360 359 29 43 44 46 45 33 27 25 21 10 352 2 349 343 356 2
158 76 105 107 103 102 106 110 90 85 92 79 60 86 82 91 85 77 32 32 67 66 48 41 43 22 356 4 32 37 44 32 18 8 353 3 349 337 314 298 332 334 336 352
111 89 90 115 138 136 130 99 113 121 113 115 108 100 105 95 88 68 43 26 70 63 5 28 41 326 337 354 4 11 15 35 31 287 344 22 20 15 6 3 357 352 346 341
116 130 149 176 170 156 178 167 152 151 134 135 131 124 107 97 81 70 55 54 100 127 109 68 5 305 313 272 213 185 157 34 24 23 20 12 358 359 350 347 345 337 325 326
148 97 144 143 162 156 155 165 145 149 151 144 129 126 124 124 144 175 183 179 108 83 53 303 210 258 284 28 34 28 28 19 12 8 342 355 350 345 339 328 312 306 306 309
157 155 161 143 152 150 158 151 155 144 132 134 135 143 143 154 168 142 110 80 60 52 353 358 16 26 24 6 32 20 21 8 359 347 343 324 322 301 300 294 293 288 288 293
118 99 121 122 120 147 143 133 134 131 141 140 136 141 143 137 97 92 63 91 185 209 292 317 13 26 5 354 11 23 9 346 325 310 316 310 301 301 296 281 278 286 289 286
150 142 140 144 146 116 131 144 144 149 166 158 151 165 151 149 143 139 83 96 278 313 328 6 31 347 348 337 352 350 337 325 321 306 303 297 299 296 289 286 282 282 284 282
156 153 147 140 140 130 149 145 137 146 152 150 128 127 131 136 130 100 238 170 235 248 52 341 316 307 303 343 346 332 311 298 286 287 286 279 274 284 288 290 292 294 299 301
161 155 148 153 155 149 142 152 161 158 152 154 155 158 161 166 160 123 167 243 207 275 101 288 280 305 301 358 322 295 288 286 284 280 276 273 275 275 285 294 297 302 304 307
146 157 146 120 128 141 154 182 155 134 138 126 138 161 151 139 335 239 200 149 188 226 239 262 278 296 317 314 287 286 286 283 285 282 280 279 277 279 288 294 302 306 308 313
144 124 135 151 164 170 132 136 121 125 128 123 155 185 169 184 150 182 160 199 243 93 301 304 303 308 301 277 280 281 281 281 283 286 288 291 295 296 295 293 295 307 312 314
156 168 170 173 166 150 151 155 154 156 145 153 223 185 172 146 130 133 162 212 243 291 285 287 280 282 282 278 275 278 281 286 287 289 291 295 296 290 293 296 300 308 308 307
122 132 130 113 132 154 161 165 157 173 176 173 162 172 165 158 155 150 184 199 219 254 265 276 275 279 280 281 286 284 280 278 279 289 293 289 286 286 290 296 303 300 300 298